BEL56L LIMC-EBBR

Flight info

Callsign BEL56L
Flight time 1h 9m
Altitude 32000
Route AOSTA DCT ORSUD DCT MOLUS DCT GILIR DCT PENDU DCT IXILU DCT GIVOR DCT SORAL DCT IBERA N853 DIK Y37 BATTY
Aircraft A320/M-SDE3FGHIRWY/LB1

Departure

Time 2026-05-07 18:17
Airport Milan Malpensa International Airport (LIMC)

Arrival

Time 2026-05-07 19:27
Airport Brussels Airport (EBBR)
Time Latitude Longitude Altitude Speed Heading
2026-05-07 17:56 45.62505 8.71750 752 ft 0 kts 259°
2026-05-07 18:08 45.62510 8.71780 749 ft 4 kts 255°
2026-05-07 18:08 45.62518 8.71817 750 ft 4 kts 245°
2026-05-07 18:09 45.62532 8.71848 748 ft 4 kts 219°
2026-05-07 18:09 45.62550 8.71860 752 ft 1 kts 171°
2026-05-07 18:09 45.62554 8.71859 748 ft 0 kts 171°
2026-05-07 18:11 45.62526 8.71865 750 ft 16 kts 171°
2026-05-07 18:11 45.62326 8.71920 753 ft 23 kts 171°
2026-05-07 18:11 45.62125 8.71975 751 ft 36 kts 169°
2026-05-07 18:12 45.61883 8.72042 749 ft 35 kts 168°
2026-05-07 18:12 45.61649 8.72106 749 ft 34 kts 169°
2026-05-07 18:12 45.61422 8.72170 753 ft 30 kts 169°
2026-05-07 18:12 45.61333 8.72194 752 ft 13 kts 169°
2026-05-07 18:13 45.61205 8.72228 752 ft 27 kts 169°
2026-05-07 18:13 45.61037 8.72375 753 ft 31 kts 86°
2026-05-07 18:13 45.61079 8.72678 749 ft 32 kts 79°
2026-05-07 18:13 45.61121 8.72995 750 ft 32 kts 79°
2026-05-07 18:14 45.61231 8.73167 752 ft 24 kts 30°
2026-05-07 18:14 45.61384 8.73269 750 ft 24 kts
2026-05-07 18:14 45.61494 8.73241 752 ft 25 kts 348°
2026-05-07 18:14 45.61608 8.73256 753 ft 11 kts 58°
2026-05-07 18:15 45.61628 8.73373 753 ft 18 kts 81°
2026-05-07 18:15 45.61593 8.73674 745 ft 31 kts 79°
2026-05-07 18:15 45.61632 8.73745 745 ft 2 kts
2026-05-07 18:15 45.61693 8.73717 745 ft 5 kts 349°
2026-05-07 18:16 45.61694 8.73717 745 ft 0 kts 349°
2026-05-07 18:16 45.61702 8.73715 745 ft 9 kts 349°
2026-05-07 18:16 45.62024 8.73624 745 ft 83 kts 349°
2026-05-07 18:16 45.62800 8.73409 745 ft 140 kts 349°
2026-05-07 18:17 45.63911 8.73099 793 ft 180 kts 348°
2026-05-07 18:17 45.65151 8.72748 1347 ft 186 kts 349°
2026-05-07 18:17 45.66440 8.72388 1994 ft 192 kts 346°
2026-05-07 18:17 45.67645 8.71464 2384 ft 211 kts 310°
2026-05-07 18:18 45.68215 8.69477 2694 ft 229 kts 271°
2026-05-07 18:18 45.67909 8.67156 3082 ft 251 kts 253°
2026-05-07 18:18 45.67425 8.64681 3770 ft 261 kts 254°
2026-05-07 18:18 45.66935 8.62155 4635 ft 266 kts 254°
2026-05-07 18:19 45.66441 8.59596 5510 ft 269 kts 253°
2026-05-07 18:19 45.65945 8.57001 6412 ft 272 kts 254°
2026-05-07 18:19 45.65441 8.54361 7247 ft 275 kts 254°
2026-05-07 18:19 45.64936 8.51710 8088 ft 278 kts 255°
2026-05-07 18:20 45.64423 8.49023 8905 ft 282 kts 255°
2026-05-07 18:20 45.63905 8.46304 9732 ft 286 kts 255°
2026-05-07 18:20 45.63374 8.43528 10338 ft 298 kts 254°
2026-05-07 18:20 45.62581 8.40714 10601 ft 320 kts 242°
2026-05-07 18:21 45.61309 8.38055 11188 ft 329 kts 231°
2026-05-07 18:21 45.59902 8.35464 11957 ft 331 kts 240°
2026-05-07 18:21 45.58959 8.32460 12752 ft 332 kts 255°
2026-05-07 18:21 45.58595 8.29202 13552 ft 333 kts 269°
2026-05-07 18:22 45.58835 8.25915 14267 ft 336 kts 283°
2026-05-07 18:22 45.59293 8.23796 14719 ft 338 kts 288°
2026-05-07 18:22 45.60298 8.19517 15597 ft 342 kts 287°
2026-05-07 18:22 45.61053 8.16282 16256 ft 345 kts 287°
2026-05-07 18:23 45.61810 8.13021 16915 ft 348 kts 287°
2026-05-07 18:23 45.62575 8.09719 17585 ft 351 kts 287°
2026-05-07 18:23 45.63342 8.06395 18228 ft 354 kts 287°
2026-05-07 18:23 45.64113 8.03041 18794 ft 357 kts 287°
2026-05-07 18:24 45.64889 7.99660 19377 ft 359 kts 287°
2026-05-07 18:24 45.65666 7.96260 19940 ft 362 kts 287°
2026-05-07 18:24 45.66441 7.92879 20482 ft 364 kts 287°
2026-05-07 18:24 45.67237 7.89410 21080 ft 367 kts 287°
2026-05-07 18:25 45.68033 7.85932 21677 ft 369 kts 287°
2026-05-07 18:25 45.68836 7.82424 22279 ft 372 kts 287°
2026-05-07 18:25 45.69644 7.78889 22833 ft 375 kts 287°
2026-05-07 18:25 45.70443 7.75387 23373 ft 378 kts 287°
2026-05-07 18:26 45.71260 7.71800 23906 ft 380 kts 286°
2026-05-07 18:26 45.72080 7.68192 24403 ft 382 kts 286°
2026-05-07 18:26 45.72988 7.64611 24841 ft 386 kts 295°
2026-05-07 18:26 45.74439 7.61352 25279 ft 390 kts 302°
2026-05-07 18:27 45.76012 7.58174 25726 ft 392 kts 303°
2026-05-07 18:27 45.77603 7.54986 26175 ft 394 kts 303°
2026-05-07 18:27 45.79201 7.51786 26599 ft 396 kts 302°
2026-05-07 18:27 45.80808 7.48567 26930 ft 398 kts 302°
2026-05-07 18:28 45.82399 7.45368 27317 ft 399 kts 302°
2026-05-07 18:28 45.84016 7.42108 27664 ft 401 kts 302°
2026-05-07 18:28 45.85630 7.38841 27977 ft 403 kts 302°
2026-05-07 18:28 45.87254 7.35543 28356 ft 405 kts 302°
2026-05-07 18:29 45.88884 7.32228 28760 ft 407 kts 302°
2026-05-07 18:29 45.90520 7.28900 29158 ft 409 kts 301°
2026-05-07 18:29 45.92160 7.25555 29528 ft 411 kts 301°
2026-05-07 18:29 45.93808 7.22194 29891 ft 413 kts 301°
2026-05-07 18:30 45.95605 7.18953 30232 ft 418 kts 309°
2026-05-07 18:30 45.97771 7.16132 30533 ft 425 kts 319°
2026-05-07 18:30 46.00183 7.13650 30812 ft 428 kts 320°
2026-05-07 18:30 46.02622 7.11164 31047 ft 430 kts 320°
2026-05-07 18:31 46.05063 7.08670 31386 ft 430 kts 320°
2026-05-07 18:31 46.07504 7.06173 31757 ft 429 kts 320°
2026-05-07 18:31 46.09940 7.03677 31961 ft 429 kts 320°
2026-05-07 18:31 46.12337 7.01217 31998 ft 416 kts 320°
2026-05-07 18:32 46.14674 6.98819 31998 ft 409 kts 320°
2026-05-07 18:32 46.19270 6.94080 32000 ft 405 kts 320°
2026-05-07 18:33 46.23811 6.89368 32004 ft 403 kts 320°
2026-05-07 18:33 46.28363 6.84647 32009 ft 402 kts 320°
2026-05-07 18:34 46.32907 6.79920 32009 ft 402 kts 320°
2026-05-07 18:34 46.37453 6.75187 32023 ft 402 kts 320°
2026-05-07 18:35 46.42000 6.70453 32014 ft 402 kts 320°
2026-05-07 18:35 46.46815 6.66243 32017 ft 408 kts 329°
2026-05-07 18:36 46.51921 6.62667 32015 ft 408 kts 329°
2026-05-07 18:36 46.56391 6.59522 32022 ft 408 kts 329°
2026-05-07 18:37 46.59480 6.57343 32013 ft 407 kts 329°
2026-05-07 18:37 46.64583 6.53727 32036 ft 410 kts 329°
2026-05-07 18:38 46.69817 6.50011 32025 ft 427 kts 329°
2026-05-07 18:38 46.75255 6.46141 32045 ft 442 kts 329°
2026-05-07 18:39 46.80873 6.42150 32039 ft 451 kts 330°
2026-05-07 18:39 46.86525 6.38138 32043 ft 452 kts 329°
2026-05-07 18:40 46.92179 6.34099 32048 ft 452 kts 329°
2026-05-07 18:40 46.97796 6.30073 32048 ft 452 kts 329°
2026-05-07 18:41 47.03441 6.26015 32046 ft 452 kts 329°
2026-05-07 18:41 47.09080 6.21956 32049 ft 452 kts 329°
2026-05-07 18:42 47.14726 6.17884 32055 ft 452 kts 329°
2026-05-07 18:42 47.20367 6.13811 32051 ft 452 kts 329°
2026-05-07 18:43 47.26019 6.09713 32044 ft 452 kts 330°
2026-05-07 18:43 47.31674 6.05643 32047 ft 453 kts 333°
2026-05-07 18:44 47.37793 6.03419 32048 ft 464 kts 353°
2026-05-07 18:44 47.44281 6.03474 32067 ft 467 kts 357°
2026-05-07 18:45 47.50779 6.03615 32051 ft 467 kts 357°
2026-05-07 18:45 47.57269 6.03757 32051 ft 467 kts 357°
2026-05-07 18:46 47.63774 6.03907 32056 ft 467 kts 357°
2026-05-07 18:46 47.70267 6.04047 32057 ft 467 kts 358°
2026-05-07 18:47 47.76736 6.05126 32054 ft 473 kts 11°
2026-05-07 18:47 47.83123 6.07536 32057 ft 473 kts 11°
2026-05-07 18:48 47.89495 6.09945 32057 ft 472 kts 11°
2026-05-07 18:48 47.95865 6.12354 32059 ft 472 kts 11°
2026-05-07 18:49 48.02191 6.14744 32060 ft 472 kts 11°
2026-05-07 18:49 48.08565 6.17152 32059 ft 471 kts 11°
2026-05-07 18:50 48.14921 6.19558 32059 ft 471 kts 12°
2026-05-07 18:50 48.18094 6.20759 32197 ft 469 kts 11°
2026-05-07 18:50 48.21247 6.21935 32590 ft 465 kts 11°
2026-05-07 18:50 48.24340 6.23095 32965 ft 463 kts 11°
2026-05-07 18:51 48.27522 6.24292 32740 ft 468 kts 11°
2026-05-07 18:51 48.30634 6.25457 32878 ft 464 kts 11°
2026-05-07 18:51 48.33769 6.26634 32812 ft 467 kts 11°
2026-05-07 18:52 48.40070 6.28999 32929 ft 467 kts 11°
2026-05-07 18:52 48.43214 6.30178 32672 ft 467 kts 11°
2026-05-07 18:52 48.46362 6.31360 32988 ft 464 kts 11°
2026-05-07 18:52 48.49515 6.32544 32722 ft 465 kts 11°
2026-05-07 18:53 48.52600 6.33700 32914 ft 443 kts 11°
2026-05-07 18:53 48.55535 6.34812 32792 ft 430 kts 11°
2026-05-07 18:53 48.58352 6.35885 32804 ft 413 kts 11°
2026-05-07 18:54 48.63946 6.38029 32672 ft 412 kts 11°
2026-05-07 18:54 48.66713 6.39094 32969 ft 413 kts 11°
2026-05-07 18:54 48.69518 6.40174 32673 ft 414 kts 11°
2026-05-07 18:54 48.72326 6.41011 32409 ft 408 kts
2026-05-07 18:55 48.75146 6.41228 32152 ft 406 kts 359°
2026-05-07 18:55 48.77962 6.41428 32025 ft 404 kts 360°
2026-05-07 18:55 48.80768 6.41630 32062 ft 405 kts 360°
2026-05-07 18:56 48.86455 6.42025 32062 ft 418 kts 359°
2026-05-07 18:56 48.92363 6.42430 32064 ft 437 kts
2026-05-07 18:57 48.98583 6.42859 32056 ft 450 kts
2026-05-07 18:57 49.04817 6.43305 32061 ft 452 kts
2026-05-07 18:58 49.11092 6.43491 32062 ft 449 kts 352°
2026-05-07 18:58 49.17144 6.41423 32061 ft 445 kts 342°
2026-05-07 18:59 49.23116 6.38957 32072 ft 445 kts 342°
2026-05-07 18:59 49.29110 6.36499 32067 ft 445 kts 342°
2026-05-07 19:00 49.35088 6.34037 32062 ft 445 kts 342°
2026-05-07 19:00 49.41070 6.31564 32062 ft 445 kts 342°
2026-05-07 19:01 49.47042 6.29082 32058 ft 445 kts 342°
2026-05-07 19:01 49.49970 6.27869 32053 ft 433 kts 342°
2026-05-07 19:01 49.52829 6.26690 32055 ft 416 kts 342°
2026-05-07 19:01 49.55580 6.25565 32056 ft 405 kts 342°
2026-05-07 19:02 49.58283 6.24463 32068 ft 401 kts 342°
2026-05-07 19:02 49.63662 6.22262 32055 ft 399 kts 342°
2026-05-07 19:03 49.69023 6.20049 32058 ft 399 kts 342°
2026-05-07 19:03 49.74390 6.17836 32059 ft 399 kts 342°
2026-05-07 19:04 49.79688 6.15662 32061 ft 389 kts 342°
2026-05-07 19:04 49.84916 6.13504 32065 ft 388 kts 342°
2026-05-07 19:05 49.90152 6.11449 32070 ft 388 kts 344°
2026-05-07 19:05 49.95460 6.09628 31355 ft 397 kts 345°
2026-05-07 19:05 49.98135 6.08731 31113 ft 392 kts 345°
2026-05-07 19:06 50.00766 6.07839 31063 ft 391 kts 345°
2026-05-07 19:06 50.06224 6.05929 30285 ft 419 kts 345°
2026-05-07 19:06 50.09099 6.04902 29280 ft 426 kts 345°
2026-05-07 19:07 50.11953 6.03883 29023 ft 414 kts 345°
2026-05-07 19:07 50.14735 6.02891 28589 ft 408 kts 345°
2026-05-07 19:07 50.17488 6.01912 28081 ft 403 kts 345°
2026-05-07 19:07 50.19296 6.01271 27740 ft 401 kts 345°
2026-05-07 19:08 50.22012 6.00309 27225 ft 398 kts 345°
2026-05-07 19:08 50.24703 5.99350 26719 ft 395 kts 345°
2026-05-07 19:08 50.27369 5.98395 26234 ft 392 kts 345°
2026-05-07 19:08 50.30027 5.97443 25728 ft 390 kts 345°
2026-05-07 19:09 50.32668 5.96502 25258 ft 388 kts 345°
2026-05-07 19:09 50.35283 5.95570 24801 ft 385 kts 345°
2026-05-07 19:09 50.37895 5.94634 24354 ft 383 kts 345°
2026-05-07 19:09 50.40483 5.93704 23905 ft 380 kts 345°
2026-05-07 19:10 50.43055 5.92777 23424 ft 378 kts 345°
2026-05-07 19:10 50.45608 5.91856 22922 ft 375 kts 345°
2026-05-07 19:10 50.48149 5.90939 22444 ft 373 kts 345°
2026-05-07 19:10 50.50636 5.90043 21985 ft 370 kts 345°
2026-05-07 19:11 50.53139 5.89141 21523 ft 368 kts 345°
2026-05-07 19:11 50.55622 5.88250 21079 ft 365 kts 345°
2026-05-07 19:11 50.58098 5.87360 20636 ft 363 kts 345°
2026-05-07 19:11 50.60551 5.86476 20204 ft 360 kts 345°
2026-05-07 19:12 50.62893 5.85204 19792 ft 354 kts 330°
2026-05-07 19:12 50.64893 5.83010 19375 ft 349 kts 314°
2026-05-07 19:12 50.66358 5.80013 18952 ft 344 kts 297°
2026-05-07 19:12 50.67464 5.76686 18527 ft 342 kts 296°
2026-05-07 19:13 50.68545 5.73380 18315 ft 334 kts 296°
2026-05-07 19:13 50.69590 5.70156 18173 ft 324 kts 296°
2026-05-07 19:13 50.70597 5.67030 17933 ft 317 kts 296°
2026-05-07 19:13 50.71578 5.63981 17581 ft 314 kts 295°
2026-05-07 19:14 50.72562 5.60911 17208 ft 313 kts 295°
2026-05-07 19:14 50.73540 5.57859 16833 ft 311 kts 295°
2026-05-07 19:14 50.74516 5.54817 16467 ft 310 kts 295°
2026-05-07 19:14 50.75489 5.51782 16109 ft 309 kts 295°
2026-05-07 19:15 50.76467 5.48727 15757 ft 307 kts 295°
2026-05-07 19:15 50.77430 5.45720 15415 ft 306 kts 295°
2026-05-07 19:15 50.78377 5.42764 15082 ft 305 kts 295°
2026-05-07 19:15 50.79333 5.39774 14756 ft 303 kts 295°
2026-05-07 19:16 50.80282 5.36803 14432 ft 302 kts 295°
2026-05-07 19:16 50.81224 5.33844 14110 ft 301 kts 295°
2026-05-07 19:16 50.82159 5.30903 13782 ft 299 kts 295°
2026-05-07 19:16 50.83093 5.27965 13425 ft 298 kts 295°
2026-05-07 19:17 50.84022 5.25037 13056 ft 297 kts 295°
2026-05-07 19:17 50.84943 5.22121 12726 ft 294 kts 295°
2026-05-07 19:17 50.85841 5.19280 12594 ft 285 kts 295°
2026-05-07 19:17 50.86739 5.16540 12464 ft 276 kts 297°
2026-05-07 19:18 50.87767 5.14026 12331 ft 269 kts 310°
2026-05-07 19:18 50.89254 5.12319 12070 ft 268 kts 338°
2026-05-07 19:18 50.91085 5.11696 11639 ft 272 kts 352°
2026-05-07 19:18 50.92982 5.11392 11210 ft 275 kts 354°
2026-05-07 19:19 50.94893 5.11120 10626 ft 276 kts 354°
2026-05-07 19:19 50.96804 5.10837 10022 ft 275 kts 351°
2026-05-07 19:19 50.98557 5.09867 9359 ft 271 kts 324°
2026-05-07 19:19 50.99815 5.07726 8698 ft 266 kts 296°
2026-05-07 19:20 51.00312 5.04945 8046 ft 262 kts 276°
2026-05-07 19:20 51.00471 5.02065 7405 ft 260 kts 273°
2026-05-07 19:20 51.00507 4.99213 6778 ft 257 kts 259°
2026-05-07 19:20 50.99983 4.96522 6140 ft 254 kts 249°
2026-05-07 19:21 50.99383 4.93923 5698 ft 245 kts 249°
2026-05-07 19:21 50.98818 4.91438 5364 ft 233 kts 250°
2026-05-07 19:21 50.98277 4.89046 5058 ft 230 kts 250°
2026-05-07 19:21 50.97735 4.86655 4734 ft 229 kts 250°
2026-05-07 19:22 50.97197 4.84280 4424 ft 229 kts 250°
2026-05-07 19:22 50.96661 4.81920 4097 ft 223 kts 250°
2026-05-07 19:22 50.96156 4.79699 3812 ft 205 kts 250°
2026-05-07 19:22 50.95693 4.77660 3597 ft 187 kts 250°
2026-05-07 19:23 50.95263 4.75773 3315 ft 178 kts 250°
2026-05-07 19:23 50.94851 4.73965 3065 ft 173 kts 250°
2026-05-07 19:23 50.94444 4.72183 2829 ft 171 kts 250°
2026-05-07 19:23 50.94040 4.70411 2602 ft 170 kts 250°
2026-05-07 19:24 50.93640 4.68661 2359 ft 168 kts 250°
2026-05-07 19:24 50.93247 4.66946 2139 ft 163 kts 250°
2026-05-07 19:24 50.92868 4.65290 1923 ft 158 kts 250°
2026-05-07 19:24 50.92502 4.63692 1719 ft 155 kts 249°
2026-05-07 19:25 50.92134 4.62087 1492 ft 154 kts 250°
2026-05-07 19:25 50.91769 4.60493 1290 ft 154 kts 250°
2026-05-07 19:25 50.91404 4.58903 1079 ft 153 kts 250°
2026-05-07 19:25 50.91042 4.57326 856 ft 153 kts 250°
2026-05-07 19:26 50.90684 4.55743 636 ft 152 kts 251°
2026-05-07 19:26 50.90321 4.54175 415 ft 151 kts 250°
2026-05-07 19:26 50.89961 4.52612 266 ft 151 kts 250°
2026-05-07 19:26 50.89616 4.51115 174 ft 134 kts 250°
2026-05-07 19:27 50.89485 4.50443 175 ft 27 kts 282°
2026-05-07 19:27 50.89494 4.50342 175 ft 17 kts 276°
2026-05-07 19:27 50.89518 4.50094 170 ft 10 kts 279°
2026-05-07 19:27 50.89531 4.49972 169 ft 16 kts 280°
2026-05-07 19:28 50.89490 4.49737 168 ft 28 kts 250°
2026-05-07 19:28 50.89445 4.49510 166 ft 20 kts 275°
2026-05-07 19:28 50.89503 4.49392 164 ft 17 kts 307°
2026-05-07 19:28 50.89562 4.49269 158 ft 12 kts 307°
2026-05-07 19:29 50.89625 4.49150 154 ft 20 kts 329°
2026-05-07 19:29 50.89725 4.49181 147 ft 12 kts 14°
2026-05-07 19:29 50.89813 4.49214 143 ft 12 kts 13°
2026-05-07 19:29 50.89927 4.49258 136 ft 24 kts 14°
2026-05-07 19:30 50.90029 4.49300 131 ft 4 kts 15°
2026-05-07 19:30 50.90055 4.49312 129 ft 4 kts 15°
2026-05-07 19:30 50.90081 4.49323 127 ft 3 kts 15°
2026-05-07 19:30 50.90102 4.49332 128 ft 5 kts 15°
2026-05-07 19:31 50.90213 4.49375 127 ft 23 kts 13°
2026-05-07 19:31 50.90322 4.49392 124 ft 9 kts 314°
2026-05-07 19:31 50.90325 4.49319 125 ft 6 kts 250°
2026-05-07 19:31 50.90303 4.49237 126 ft 8 kts 246°
2026-05-07 19:32 50.90282 4.49168 125 ft 6 kts 243°
2026-05-07 19:32 50.90265 4.49112 124 ft 5 kts 244°
2026-05-07 19:32 50.90244 4.49036 124 ft 12 kts 246°
2026-05-07 19:32 50.90205 4.48902 124 ft 13 kts 245°
2026-05-07 19:33 50.90170 4.48783 125 ft 11 kts 245°
2026-05-07 19:33 50.90140 4.48678 125 ft 10 kts 245°
2026-05-07 19:33 50.90114 4.48586 123 ft 8 kts 245°
2026-05-07 19:33 50.90091 4.48508 126 ft 7 kts 245°
2026-05-07 19:34 50.90088 4.48444 125 ft 6 kts 311°
2026-05-07 19:34 50.90129 4.48412 125 ft 7 kts 335°
2026-05-07 19:34 50.90181 4.48374 121 ft 9 kts 335°
2026-05-07 19:34 50.90206 4.48355 120 ft 0 kts 335°
2026-05-07 19:35 50.90211 4.48352 120 ft 0 kts 335°